Regional Weather Roundup
Issued by NWS

Home | Current Version | Previous Version | Graphics & Text | Print | Product List | Glossary On
Versions: 1 2 3 4 5 6 7 8 9 10 11 12 13 14 15 16 17 18 19 20 21 22 23 24 25 26 27 28 29 30 31 32 33 34 35 36 37 38 39 40 41 42 43 44 45 46 47 48 49 50
164
ASUS43 KBIS 280710
RWRND

NORTH DAKOTA REGIONAL WEATHER ROUNDUP
NATIONAL WEATHER SERVICE BISMARCK ND
200 AM CDT SUN MAY 28 2017

NOTE: "FAIR" INDICATES FEW OR NO CLOUDS BELOW 12,000 FEET WITH NO
SIGNIFICANT WEATHER AND/OR OBSTRUCTIONS TO VISIBILITY.


NDZ001>003-009>011-017-280800-
NORTHWEST NORTH DAKOTA

CITY           SKY/WX    TMP DP  RH WIND       PRES   REMARKS
WILLISTON      FAIR      50  36  58 NE3       29.94R
MINOT          CLOUDY    52  44  74 SW9       29.84S
MINOT AFB      CLOUDY    52  48  87 W9        29.84R
$$

NDZ018>021-031>035-040>046-280800-
SOUTHWEST NORTH DAKOTA

CITY           SKY/WX    TMP DP  RH WIND       PRES   REMARKS
BISMARCK       FAIR      48  42  80 CALM      29.87R
DICKINSON      FAIR      45  39  79 NW8       29.92S
GARRISON         N/A     42  38  85 N8        29.86R
HETTINGER ARPT PTCLDY    47  40  76 NW9       29.96S
$$

NDZ004>008-012>016-024-026-027-054-280800-
NORTHEAST NORTH DAKOTA

CITY           SKY/WX    TMP DP  RH WIND       PRES   REMARKS
GRAND FORKS    CLOUDY    53  50  89 CALM      29.73S
GRND FRKS AFB  CLOUDY    51  49  94 W6        29.74R
DEVILS LAKE    FAIR      46  44  93 W8        29.79F
$$

NDZ022-023-025-028>030-036>039-047>053-280800-
SOUTHEAST NORTH DAKOTA

CITY           SKY/WX    TMP DP  RH WIND       PRES   REMARKS
FARGO          PTCLDY    52  47  83 W9        29.76F
JAMESTOWN      FAIR      49  44  83 W9        29.81S
$$





USA.gov is the U.S. government's official web portal to all federal, state and local government web resources and services.